{"data":{"norad_id":61721,"epoch":"2026-05-25T03:13:26.035968Z","epoch_age_seconds":67289,"freshness":"FRESH","line1":"1 61721U 24196Q   26145.13432912  .00000244  00000+0  20369-4 0  9995","line2":"2 61721  53.1613 106.0423 0001340  95.5742 264.5412 15.30189943 88861","mean_motion":15.30189943,"eccentricity":0.000134,"inclination_deg":53.1613,"raan_deg":106.0423,"arg_perigee_deg":95.5742,"mean_anomaly_deg":264.5412,"bstar":2.0369e-5,"rev_number":8886,"period_min":94.105964203164,"perigee_km":474.32674477187,"apogee_km":476.16345117413,"semimajor_km":6853.382097973,"source":"CELESTRAK","updated_at":"2026-05-25T13:38:19.446865Z"}}